Wind_Speed
24 24 23 22 22 21 22 22 22 23 25 26 26 27 26 25 24 24 25 25 24 23 23 23 23 23 22 23 23 22 22 22 21 22 22 22 22 21 22 22 22 22 22 22
27 26 25 25 25 23 22 23 23 25 26 27 28 27 27 26 25 26 25 25 25 24 24 24 23 23 23 23 23 23 23 23 23 22 22 22 22 22 22 23 23 23 23 23
28 26 27 27 26 24 24 26 25 26 26 27 28 29 28 27 26 26 27 26 26 26 25 24 24 23 23 24 23 23 23 23 24 24 24 23 23 24 24 23 24 24 24 25
29 28 29 28 27 27 28 28 26 27 27 28 29 29 29 29 27 27 27 26 26 26 25 24 24 24 23 24 24 23 24 24 24 24 24 24 24 25 25 25 25 25 26 26
30 30 31 30 29 28 29 30 30 29 28 28 29 28 29 29 28 28 27 27 27 27 25 25 25 25 25 24 24 24 25 24 24 25 25 25 26 26 26 26 27 27 27 27
31 31 31 31 29 28 29 31 30 29 30 30 29 28 29 30 30 28 28 28 28 28 27 26 26 26 26 26 26 26 26 25 25 26 26 26 27 27 27 27 27 28 28 28
31 31 32 31 28 28 30 31 30 30 30 28 30 31 30 30 30 29 29 29 28 28 27 27 27 26 27 27 27 27 27 28 28 28 27 27 28 28 28 27 27 27 27 27
31 32 34 31 28 27 30 31 32 32 31 30 31 32 31 30 30 30 29 29 29 29 28 28 28 27 28 28 28 28 28 29 29 29 29 28 28 28 27 27 27 28 27 27
31 32 31 30 30 30 31 32 33 33 32 31 31 32 32 31 31 31 31 30 30 30 29 29 29 29 28 28 29 29 29 29 29 29 29 29 29 29 28 28 28 27 27 27
32 32 31 31 31 30 30 32 33 34 34 32 32 33 33 33 32 32 31 29 30 30 30 30 30 30 29 29 29 29 29 29 29 29 29 29 29 28 28 28 28 28 27 27
34 34 34 34 34 33 32 32 32 33 34 34 34 34 34 32 30 30 30 29 30 30 30 30 30 31 31 31 31 31 30 30 30 29 29 29 29 29 28 28 28 28 27 27
32 33 35 34 34 34 34 34 34 34 34 35 35 34 34 34 33 31 31 30 30 31 31 31 31 31 32 32 32 32 31 31 30 29 29 29 29 29 28 28 28 28 27 27
34 34 35 35 35 35 34 34 34 34 35 36 35 34 34 34 33 33 32 31 31 31 31 31 32 32 32 32 32 32 32 31 30 30 30 30 30 29 29 29 29 28 28 27
33 34 35 35 35 34 34 33 33 33 34 35 34 33 33 33 33 33 32 32 32 32 31 31 31 31 31 32 32 32 32 32 31 31 31 31 30 30 30 29 28 28 28 28
34 33 33 32 33 32 32 32 32 33 33 33 33 33 32 32 33 32 32 32 32 31 31 31 30 30 31 31 32 32 32 32 32 32 31 31 31 30 29 29 28 28 28 28
33 33 32 32 32 32 31 31 31 31 31 32 32 32 31 31 32 32 32 31 31 31 31 30 30 29 30 30 30 30 30 30 31 31 31 30 29 28 28 28 28 28 27 28
31 31 31 31 31 31 31 30 30 29 30 31 31 31 31 31 31 31 30 30 30 30 30 29 29 28 29 30 30 29 29 29 29 29 29 29 28 28 27 27 27 27 27 26
28 29 29 29 29 29 29 28 28 29 30 30 30 30 30 29 30 30 30 30 30 29 29 28 28 28 28 29 29 28 28 28 28 28 28 28 28 27 26 26 25 25 24 24
28 28 29 29 28 28 28 27 27 28 28 28 28 28 28 28 28 28 27 28 27 27 26 27 27 26 26 26 26 26 26 26 26 25 25 25 25 25 25 25 25 25 25 25
27 27 28 28 27 27 26 26 26 26 26 26 26 27 27 27 26 26 26 26 26 26 25 26 26 25 25 25 25 24 24 25 24 24 24 24 23 23 24 24 24 24 25 24
25 25 25 26 26 26 26 26 25 24 24 24 25 25 25 25 25 25 25 25 24 24 23 24 24 24 24 23 23 23 23 23 23 22 22 22 22 23 23 23 23 23 24 24
22 23 23 24 25 25 25 25 24 23 24 24 24 24 24 24 24 24 24 24 23 23 22 22 22 22 22 22 22 22 22 22 22 21 20 21 22 22 22 22 22 22 23 22
21 22 22 23 23 23 24 24 23 23 23 24 24 23 23 23 23 23 23 22 22 21 21 21 21 21 21 22 22 22 22 22 21 20 20 20 21 22 22 22 22 22 21 21
19 20 21 21 21 20 21 21 21 22 22 23 23 23 23 23 23 22 21 21 21 20 20 20 20 20 21 21 22 22 21 21 20 21 21 22 21 21 21 21 21 21 22 22
17 18 19 18 17 17 18 19 19 19 20 21 21 21 21 20 20 19 20 20 20 19 19 19 19 20 20 20 21 20 20 20 20 20 20 20 20 21 21 20 20 21 21 21
16 17 16 15 15 16 17 18 18 18 18 17 18 18 18 18 17 18 18 19 19 19 19 19 19 20 20 20 20 20 20 20 20 20 20 20 20 20 20 20 21 20 21 21
15 15 14 14 14 14 16 16 16 16 16 15 16 17 17 17 17 18 18 18 18 19 19 19 20 20 20 20 20 20 21 21 21 21 20 20 20 21 22 22 22 22 22 21
Wind_Direction
249 252 254 250 248 253 257 258 259 262 266 267 271 279 283 283 284 286 285 284 286 287 289 291 293 294 293 294 296 295 293 293 292 293 294 294 293 294 292 290 288 287 287 289
251 253 254 256 250 249 253 256 257 259 263 266 270 274 279 282 284 283 283 285 289 289 291 290 291 292 292 293 293 294 292 292 292 291 292 293 292 293 292 290 289 288 288 289
252 252 251 253 254 255 255 255 259 262 263 266 270 273 277 280 282 282 283 285 288 289 289 289 289 288 289 290 291 292 292 291 292 291 291 292 292 292 291 291 290 289 288 289
254 253 252 255 255 255 254 254 256 260 261 262 268 272 274 277 279 281 283 285 287 288 288 288 287 286 287 288 289 290 291 290 290 291 292 292 293 292 291 291 292 290 289 288
251 252 254 255 252 252 256 256 255 260 262 265 266 270 272 273 275 278 281 284 286 288 288 287 286 286 286 285 287 289 289 289 289 291 292 293 293 293 292 292 291 290 289 288
250 251 253 254 255 255 259 262 262 263 266 267 266 267 269 272 275 279 281 283 284 285 286 286 284 285 285 285 285 287 288 289 290 291 292 293 293 293 293 292 290 289 288 288
249 250 253 254 253 254 255 258 261 262 265 265 266 268 272 276 277 278 280 281 282 283 284 285 284 284 284 286 286 286 287 288 289 290 290 291 292 293 293 292 291 290 288 288
252 252 254 256 251 253 258 261 261 261 263 264 266 270 273 276 277 278 277 278 280 281 281 283 284 285 285 285 286 286 287 287 288 288 288 289 290 291 291 290 291 291 289 289
254 256 257 261 258 255 257 259 261 262 263 265 268 271 273 276 277 277 278 277 278 280 281 282 284 285 285 286 287 287 287 288 288 288 288 288 289 290 290 290 290 289 288 289
253 256 256 259 261 260 259 259 260 263 265 267 269 271 272 276 277 276 277 277 277 279 280 281 282 283 284 285 287 288 288 289 289 288 288 288 288 290 290 290 289 288 288 288
253 256 255 256 258 259 260 260 262 263 265 268 269 271 273 276 277 277 278 279 278 278 279 281 281 282 283 284 285 287 288 290 291 291 290 290 290 290 290 290 290 288 286 286
253 256 257 257 256 258 260 262 264 265 266 268 270 272 272 273 276 277 277 279 280 279 278 279 280 281 281 283 284 285 286 288 289 290 291 291 290 289 288 289 289 288 287 284
252 254 256 258 259 260 262 263 263 265 266 269 270 271 272 274 275 275 276 278 279 279 278 278 279 280 281 282 283 284 285 286 287 288 289 289 289 287 286 286 286 286 286 285
254 254 256 258 259 261 262 264 265 266 268 270 271 271 272 274 275 275 275 277 279 279 279 279 279 280 281 281 283 283 284 286 287 287 287 288 288 286 285 284 284 284 286 285
254 256 258 259 260 262 264 266 267 267 268 269 270 272 272 274 275 276 276 277 278 278 278 278 279 280 281 282 283 283 284 284 285 285 285 285 287 286 285 284 283 283 284 284
256 257 259 260 261 262 264 266 267 268 268 269 271 273 274 275 275 277 277 276 277 278 278 278 279 279 280 283 284 283 284 284 285 285 285 284 285 285 285 285 283 283 283 284
259 258 258 259 260 261 263 264 266 268 269 271 273 273 274 276 275 276 277 276 276 277 278 278 278 278 279 282 283 283 284 285 285 285 285 284 284 284 284 285 285 284 283 286
259 257 257 258 259 262 264 265 267 269 270 271 273 274 274 273 273 274 275 275 275 276 276 277 277 277 280 282 284 285 285 284 284 285 285 284 283 282 282 283 284 285 286 288
263 262 259 259 259 261 262 265 266 268 270 271 272 272 273 274 274 274 275 276 275 275 276 278 278 279 281 283 284 285 285 285 284 284 285 286 284 282 282 283 284 284 285 288
263 264 261 257 257 259 260 263 266 268 269 268 270 271 272 274 276 277 277 277 276 275 277 278 279 280 281 283 285 286 286 285 284 284 283 282 284 284 284 285 285 286 285 287
262 262 262 258 256 257 260 263 264 265 266 268 269 271 273 274 275 276 276 277 277 277 278 279 280 282 283 283 285 287 288 288 286 284 282 282 282 282 282 285 285 285 286 287
262 261 262 260 258 258 260 260 260 263 265 269 271 271 272 274 274 275 276 276 276 275 277 279 281 282 284 284 286 287 288 288 287 285 283 283 285 285 285 285 286 285 287 288
263 262 262 260 258 258 258 259 260 262 264 267 269 270 271 273 275 275 275 274 273 274 276 279 281 281 282 284 285 287 288 289 289 288 285 284 285 286 287 288 288 286 286 288
266 264 264 260 257 258 259 260 263 266 266 266 267 269 271 271 274 274 273 272 272 274 275 277 280 282 283 283 285 288 288 287 288 288 286 287 287 287 290 291 291 288 286 287
266 264 263 260 256 254 256 260 265 267 268 268 266 268 272 272 272 271 270 271 272 273 274 275 279 282 284 285 287 289 289 287 288 287 287 288 289 290 289 290 290 290 290 291
265 263 260 257 257 256 255 259 262 266 269 270 268 270 272 273 271 268 268 269 271 273 274 276 280 283 284 285 286 287 288 287 287 288 288 287 287 289 290 290 291 292 294 294
263 261 259 256 259 260 259 261 263 264 266 269 268 270 272 272 271 269 269 271 272 274 275 277 281 284 285 285 286 287 288 287 286 285 286 286 286 289 291 292 291 292 293 292
Height
5862 5863 5864 5865 5866 5868 5869 5869 5870 5869 5868 5866 5866 5864 5863 5862 5861 5859 5858 5857 5855 5854 5854 5853 5851 5850 5848 5847 5845 5844 5842 5841 5840 5838 5837 5835 5834 5832 5831 5830 5828 5827 5826 5825
5855 5856 5857 5858 5860 5860 5862 5863 5863 5863 5863 5861 5859 5858 5857 5856 5855 5854 5853 5851 5849 5848 5848 5847 5846 5844 5843 5842 5840 5838 5837 5835 5834 5832 5831 5830 5828 5827 5825 5824 5822 5821 5820 5819
5847 5850 5850 5851 5853 5854 5855 5855 5857 5857 5857 5855 5854 5853 5852 5850 5850 5848 5847 5846 5845 5843 5842 5840 5840 5839 5837 5836 5834 5833 5831 5830 5828 5827 5825 5824 5822 5821 5819 5818 5816 5814 5813 5812
5840 5842 5841 5846 5847 5847 5847 5848 5849 5849 5848 5847 5847 5846 5845 5844 5843 5842 5841 5840 5839 5837 5836 5835 5834 5832 5831 5830 5829 5827 5826 5824 5822 5821 5819 5818 5816 5814 5813 5811 5810 5808 5806 5805
5832 5833 5834 5837 5838 5839 5839 5839 5840 5840 5839 5838 5838 5839 5838 5837 5836 5836 5835 5834 5833 5831 5830 5829 5827 5826 5825 5824 5822 5821 5820 5818 5816 5815 5813 5811 5810 5808 5806 5804 5802 5801 5799 5798
5823 5825 5826 5829 5829 5831 5832 5830 5831 5831 5830 5831 5831 5831 5831 5829 5829 5829 5828 5827 5826 5824 5823 5822 5821 5819 5818 5817 5816 5815 5813 5812 5810 5808 5806 5805 5803 5801 5799 5797 5795 5793 5792 5791
5814 5816 5817 5820 5821 5823 5824 5823 5823 5822 5822 5822 5823 5823 5823 5822 5822 5822 5821 5820 5819 5817 5816 5815 5814 5813 5811 5810 5808 5807 5806 5804 5803 5801 5799 5797 5795 5793 5791 5789 5788 5786 5784 5783
5806 5807 5810 5811 5813 5815 5815 5815 5814 5814 5814 5814 5815 5815 5815 5814 5814 5814 5813 5812 5811 5810 5808 5807 5806 5805 5804 5803 5801 5799 5798 5797 5795 5793 5791 5789 5788 5786 5784 5782 5780 5778 5777 5776
5799 5801 5801 5802 5804 5804 5805 5806 5805 5805 5806 5807 5807 5806 5807 5806 5806 5805 5804 5804 5803 5802 5801 5800 5799 5798 5796 5795 5793 5792 5790 5789 5787 5785 5783 5781 5780 5778 5776 5774 5773 5771 5769 5768
5789 5790 5792 5793 5794 5795 5796 5796 5797 5797 5798 5798 5798 5798 5797 5797 5796 5796 5795 5795 5795 5794 5793 5792 5791 5789 5788 5787 5785 5783 5782 5780 5779 5777 5775 5773 5772 5770 5768 5767 5765 5763 5762 5760
5780 5782 5783 5784 5785 5786 5786 5787 5788 5789 5789 5789 5789 5789 5788 5787 5787 5787 5786 5785 5785 5785 5784 5783 5782 5781 5780 5778 5777 5776 5774 5772 5771 5769 5767 5765 5764 5762 5760 5759 5757 5755 5754 5752
5770 5772 5773 5774 5776 5777 5777 5778 5779 5780 5780 5780 5780 5779 5779 5779 5778 5778 5777 5777 5777 5776 5775 5775 5774 5772 5771 5770 5768 5767 5766 5764 5762 5761 5759 5757 5755 5754 5752 5751 5749 5747 5745 5744
5761 5762 5763 5764 5766 5767 5768 5769 5770 5770 5770 5770 5770 5770 5770 5769 5769 5769 5769 5768 5768 5767 5766 5766 5764 5763 5762 5761 5759 5758 5757 5755 5754 5752 5750 5749 5747 5745 5744 5743 5741 5739 5738 5736
5751 5752 5753 5755 5756 5758 5759 5760 5760 5761 5761 5761 5760 5761 5760 5760 5760 5760 5760 5759 5759 5758 5757 5756 5755 5754 5753 5752 5750 5749 5747 5746 5745 5743 5742 5740 5739 5737 5735 5734 5733 5731 5730 5728
5742 5743 5744 5746 5747 5749 5750 5750 5751 5751 5751 5751 5751 5751 5751 5751 5751 5751 5750 5750 5749 5748 5748 5747 5746 5745 5744 5743 5741 5739 5738 5737 5736 5734 5732 5731 5730 5728 5726 5726 5725 5723 5722 5721
5734 5735 5736 5737 5738 5739 5740 5741 5741 5741 5741 5741 5742 5742 5742 5742 5741 5741 5741 5740 5740 5739 5739 5738 5737 5736 5735 5733 5732 5731 5729 5728 5727 5725 5723 5722 5721 5720 5718 5717 5716 5715 5714 5713
5725 5726 5727 5728 5729 5730 5731 5732 5733 5733 5733 5733 5733 5733 5733 5733 5732 5732 5731 5731 5730 5730 5730 5729 5728 5727 5726 5725 5723 5722 5720 5719 5718 5716 5715 5714 5713 5712 5711 5709 5708 5707 5706 5705
5716 5717 5718 5720 5721 5722 5723 5723 5724 5724 5724 5724 5724 5724 5724 5724 5724 5723 5723 5722 5722 5721 5720 5720 5719 5718 5717 5716 5714 5713 5712 5711 5709 5708 5707 5705 5704 5704 5703 5702 5701 5699 5698 5696
5707 5708 5710 5711 5712 5713 5714 5715 5715 5716 5716 5716 5716 5716 5716 5715 5715 5714 5714 5714 5713 5713 5713 5712 5711 5710 5709 5708 5706 5705 5703 5702 5701 5700 5699 5698 5697 5696 5695 5694 5693 5692 5690 5689
5699 5700 5701 5702 5703 5705 5706 5707 5707 5707 5708 5708 5708 5708 5708 5707 5707 5706 5706 5706 5705 5705 5704 5703 5703 5702 5701 5700 5699 5697 5696 5695 5694 5693 5692 5691 5690 5689 5688 5688 5686 5685 5684 5683
5691 5692 5692 5693 5694 5696 5697 5698 5699 5699 5700 5700 5700 5700 5700 5699 5699 5699 5698 5698 5698 5697 5696 5696 5695 5695 5694 5693 5692 5691 5689 5688 5687 5685 5685 5684 5684 5683 5682 5681 5680 5678 5677 5676
5683 5684 5684 5685 5686 5688 5689 5690 5691 5692 5692 5692 5692 5692 5692 5692 5692 5691 5691 5691 5690 5690 5689 5689 5688 5688 5687 5686 5685 5684 5683 5681 5680 5679 5679 5678 5677 5676 5675 5674 5673 5672 5671 5669
5676 5677 5677 5678 5679 5680 5681 5683 5684 5684 5685 5685 5685 5685 5685 5684 5684 5684 5684 5684 5683 5683 5683 5682 5682 5681 5681 5680 5679 5678 5677 5675 5674 5673 5672 5671 5671 5670 5669 5668 5667 5665 5664 5663
5670 5670 5670 5671 5672 5673 5675 5676 5677 5677 5677 5677 5677 5678 5677 5677 5677 5677 5677 5677 5677 5677 5677 5676 5676 5675 5675 5674 5673 5672 5671 5669 5668 5667 5667 5666 5665 5664 5663 5662 5661 5659 5658 5657
5664 5664 5664 5665 5666 5667 5668 5669 5670 5671 5671 5670 5670 5670 5669 5670 5670 5670 5671 5671 5671 5671 5671 5671 5670 5670 5669 5669 5668 5667 5665 5664 5663 5662 5661 5660 5659 5658 5657 5656 5655 5654 5652 5651
5659 5659 5660 5660 5661 5662 5663 5664 5665 5665 5665 5665 5665 5665 5664 5664 5665 5665 5665 5665 5665 5665 5665 5665 5665 5664 5664 5663 5662 5661 5660 5659 5658 5656 5655 5654 5653 5652 5651 5650 5649 5648 5646 5645
5655 5655 5655 5656 5657 5657 5658 5659 5660 5660 5660 5661 5660 5661 5660 5660 5660 5660 5660 5660 5660 5660 5660 5660 5659 5659 5658 5657 5656 5655 5654 5653 5652 5650 5649 5648 5647 5646 5645 5644 5643 5641 5640 5639